"Sample Date","Sample Time","Sample Value","Units","Flow Rate","Sample Interval","Number Channels","Micron Size 0","Counts/Channel 0","Micron Size 1","Counts/Channel 1","Micron Size 2","Counts/Channel 2","Micron Size 3","Counts/Channel 3","Micron Size 4","Counts/Channel 4","Micron Size 5","Counts/Channel 5","Micron Size 6","Counts/Channel 6","Micron Size 7","Counts/Channel 7","Micron Size 8","Counts/Channel 8","Micron Size 9","Counts/Channel 9","Micron Size 10","Counts/Channel 10","Micron Size 11","Counts/Channel 11","Micron Size 12","Counts/Channel 12","Micron Size 13","Counts/Channel 13","Micron Size 14","Counts/Channel 14","Micron Size 15","Counts/Channel 15","Micron Size 16","Counts/Channel 16","Micron Size 17","Counts/Channel 17","Micron Size 18","Counts/Channel 18","Micron Size 19","Counts/Channel 19","Micron Size 20","Counts/Channel 20","Micron Size 21","Counts/Channel 21","Micron Size 22","Counts/Channel 22","Micron Size 23","Counts/Channel 23","Micron Size 24","Counts/Channel 24","Micron Size 25","Counts/Channel 25","Micron Size 26","Counts/Channel 26","Micron Size 27","Counts/Channel 27","Micron Size 28","Counts/Channel 28","Micron Size 29","Counts/Channel 29","Micron Size 30","Counts/Channel 30","Micron Size 31","Counts/Channel 31"
"03/12/08","02:00:01",47292.000,"cc",28294.820,6.00,6,0.100,39080.000,0.200,4098.000,0.300,1801.000,0.500,1825.000,1.000,488.000,5.000,0
"03/12/08","02:00:07",32293.000,"cc",28364.977,6.00,6,0.100,25201.000,0.200,3028.000,0.300,1741.000,0.500,1808.000,1.000,515.000,5.000,0
"03/12/08","02:00:13",27641.000,"cc",28303.943,6.00,6,0.100,21302.000,0.200,2519.000,0.300,1654.000,0.500,1719.000,1.000,447.000,5.000,0
"03/12/08","02:00:19",28104.000,"cc",28343.365,6.00,6,0.100,21606.000,0.200,2615.000,0.300,1691.000,0.500,1749.000,1.000,443.000,5.000,0
"03/12/08","02:00:25",27562.000,"cc",28296.824,6.00,6,0.100,20991.000,0.200,2614.000,0.300,1681.000,0.500,1871.000,1.000,405.000,5.000,0
"03/12/08","02:00:31",27147.000,"cc",28364.197,6.00,6,0.100,20805.000,0.200,2451.000,0.300,1677.000,0.500,1786.000,1.000,428.000,5.000,0
"03/12/08","02:00:37",26917.000,"cc",28300.356,6.00,6,0.100,20572.000,0.200,2568.000,0.300,1649.000,0.500,1746.000,1.000,382.000,5.000,0
"03/12/08","02:00:43",26693.000,"cc",28362.207,6.00,6,0.100,20395.000,0.200,2448.000,0.300,1703.000,0.500,1788.000,1.000,359.000,5.000,0
"03/12/08","02:00:49",26453.000,"cc",28295.184,6.00,6,0.100,20265.000,0.200,2443.000,0.300,1657.000,0.500,1718.000,1.000,370.000,5.000,0
"03/12/08","02:00:55",27037.000,"cc",28290.945,6.00,6,0.100,20679.000,0.200,2537.000,0.300,1685.000,0.500,1715.000,1.000,421.000,5.000,0
"03/12/08","02:01:01",27080.000,"cc",28326.625,6.00,6,0.100,20793.000,0.200,2481.000,0.300,1615.000,0.500,1790.000,1.000,401.000,5.000,0
"03/12/08","02:01:07",26875.000,"cc",28356.000,6.00,6,0.100,20570.000,0.200,2480.000,0.300,1643.000,0.500,1789.000,1.000,393.000,5.000,0
"03/12/08","02:01:13",26853.000,"cc",28346.793,6.00,6,0.100,20563.000,0.200,2456.000,0.300,1659.000,0.500,1790.000,1.000,385.000,5.000,0
"03/12/08","02:01:19",26558.000,"cc",28334.311,6.00,6,0.100,20356.000,0.200,2466.000,0.300,1688.000,0.500,1691.000,1.000,357.000,5.000,0
"03/12/08","02:01:25",26806.000,"cc",28261.908,6.00,6,0.100,20552.000,0.200,2429.000,0.300,1650.000,0.500,1781.000,1.000,394.000,5.000,0
"03/12/08","02:01:31",26690.000,"cc",28381.785,6.00,6,0.100,20371.000,0.200,2505.000,0.300,1725.000,0.500,1708.000,1.000,381.000,5.000,0
"03/12/08","02:01:37",26796.000,"cc",28418.895,6.00,6,0.100,20454.000,0.200,2385.000,0.300,1659.000,0.500,1848.000,1.000,450.000,5.000,0
"03/12/08","02:01:43",26887.000,"cc",28317.225,6.00,6,0.100,20653.000,0.200,2457.000,0.300,1592.000,0.500,1793.000,1.000,392.000,5.000,0
"03/12/08","02:01:49",26580.000,"cc",28285.738,6.00,6,0.100,20332.000,0.200,2469.000,0.300,1645.000,0.500,1773.000,1.000,361.000,5.000,0
"03/12/08","02:01:55",26832.000,"cc",28297.203,6.00,6,0.100,20484.000,0.200,2447.000,0.300,1630.000,0.500,1811.000,1.000,460.000,5.000,0
"03/12/08","02:02:01",26718.000,"cc",28349.734,6.00,6,0.100,20459.000,0.200,2510.000,0.300,1638.000,0.500,1715.000,1.000,396.000,5.000,0
"03/12/08","02:02:07",26617.000,"cc",28335.287,6.00,6,0.100,20445.000,0.200,2375.000,0.300,1618.000,0.500,1744.000,1.000,435.000,5.000,0
"03/12/08","02:02:13",26895.000,"cc",28338.316,6.00,6,0.100,20562.000,0.200,2479.000,0.300,1654.000,0.500,1782.000,1.000,418.000,5.000,0
"03/12/08","02:02:19",26541.000,"cc",28329.910,6.00,6,0.100,20234.000,0.200,2430.000,0.300,1644.000,0.500,1820.000,1.000,413.000,5.000,0
"03/12/08","02:02:25",26614.000,"cc",28318.897,6.00,6,0.100,20191.000,0.200,2545.000,0.300,1695.000,0.500,1749.000,1.000,434.000,5.000,0
"03/12/08","02:02:31",26560.000,"cc",28367.445,6.00,6,0.100,20272.000,0.200,2445.000,0.300,1673.000,0.500,1742.000,1.000,428.000,5.000,0
"03/12/08","02:02:37",26472.000,"cc",28264.522,6.00,6,0.100,20168.000,0.200,2535.000,0.300,1705.000,0.500,1670.000,1.000,394.000,5.000,0
"03/12/08","02:02:43",26473.000,"cc",28281.852,6.00,6,0.100,20171.000,0.200,2413.000,0.300,1668.000,0.500,1759.000,1.000,462.000,5.000,0
"03/12/08","02:02:49",26724.000,"cc",28342.967,6.00,6,0.100,20378.000,0.200,2463.000,0.300,1681.000,0.500,1778.000,1.000,424.000,5.000,0
"03/12/08","02:02:55",26523.000,"cc",28306.979,6.00,6,0.100,20067.000,0.200,2465.000,0.300,1694.000,0.500,1800.000,1.000,497.000,5.000,0
"03/12/08","02:03:01",26257.000,"cc",28378.217,6.00,6,0.100,19901.000,0.200,2483.000,0.300,1778.000,0.500,1685.000,1.000,410.000,5.000,0
"03/12/08","02:03:07",26931.000,"cc",28231.348,6.00,6,0.100,20600.000,0.200,2505.000,0.300,1681.000,0.500,1681.000,1.000,464.000,5.000,0
"03/12/08","02:03:13",26298.000,"cc",28290.115,6.00,6,0.100,20083.000,0.200,2434.000,0.300,1616.000,0.500,1757.000,1.000,408.000,5.000,0
"03/12/08","02:03:19",26656.000,"cc",28299.363,6.00,6,0.100,20269.000,0.200,2454.000,0.300,1680.000,0.500,1830.000,1.000,423.000,5.000,0
"03/12/08","02:03:25",26682.000,"cc",28350.682,6.00,6,0.100,20290.000,0.200,2478.000,0.300,1702.000,0.500,1725.000,1.000,487.000,5.000,0
"03/12/08","02:03:31",26531.000,"cc",28320.740,6.00,6,0.100,20105.000,0.200,2460.000,0.300,1668.000,0.500,1812.000,1.000,486.000,5.000,0
"03/12/08","02:03:37",26690.000,"cc",28300.918,6.00,6,0.100,20390.000,0.200,2393.000,0.300,1673.000,0.500,1734.000,1.000,500.000,5.000,0
"03/12/08","02:03:43",26828.000,"cc",28340.283,6.00,6,0.100,20263.000,0.200,2525.000,0.300,1733.000,0.500,1845.000,1.000,462.000,5.000,0
"03/12/08","02:03:49",26690.000,"cc",28301.463,6.00,6,0.100,20195.000,0.200,2465.000,0.300,1736.000,0.500,1807.000,1.000,487.000,5.000,0
"03/12/08","02:03:55",26490.000,"cc",28247.440,6.00,6,0.100,20032.000,0.200,2415.000,0.300,1722.000,0.500,1825.000,1.000,496.000,5.000,0
"03/12/08","02:04:01",26560.000,"cc",28277.529,6.00,6,0.100,20054.000,0.200,2430.000,0.300,1726.000,0.500,1847.000,1.000,503.000,5.000,0
"03/12/08","02:04:07",26679.000,"cc",28358.457,6.00,6,0.100,20019.000,0.200,2543.000,0.300,1768.000,0.500,1871.000,1.000,478.000,5.000,0
"03/12/08","02:04:13",26251.000,"cc",28356.660,6.00,6,0.100,19894.000,0.200,2444.000,0.300,1698.000,0.500,1771.000,1.000,444.000,5.000,0
"03/12/08","02:04:19",26596.000,"cc",28351.043,6.00,6,0.100,19973.000,0.200,2515.000,0.300,1735.000,0.500,1862.000,1.000,511.000,5.000,0
"03/12/08","02:04:25",26387.000,"cc",28340.482,6.00,6,0.100,19948.000,0.200,2409.000,0.300,1652.000,0.500,1879.000,1.000,499.000,5.000,0
"03/12/08","02:04:31",26444.000,"cc",28236.523,6.00,6,0.100,20025.000,0.200,2423.000,0.300,1730.000,0.500,1759.000,1.000,507.000,5.000,0
"03/12/08","02:04:37",26640.000,"cc",28335.389,6.00,6,0.100,20256.000,0.200,2446.000,0.300,1665.000,0.500,1773.000,1.000,500.000,5.000,0
"03/12/08","02:04:43",26279.000,"cc",28289.066,6.00,6,0.100,19951.000,0.200,2413.000,0.300,1734.000,0.500,1733.000,1.000,448.000,5.000,0
"03/12/08","02:04:49",26499.000,"cc",28277.830,6.00,6,0.100,20141.000,0.200,2505.000,0.300,1709.000,0.500,1698.000,1.000,446.000,5.000,0
"03/12/08","02:04:55",26602.000,"cc",28331.275,6.00,6,0.100,20170.000,0.200,2532.000,0.300,1623.000,0.500,1805.000,1.000,472.000,5.000,0
"03/12/08","02:05:01",26467.000,"cc",28319.762,6.00,6,0.100,20078.000,0.200,2375.000,0.300,1686.000,0.500,1775.000,1.000,553.000,5.000,0
"03/12/08","02:05:07",26548.000,"cc",28313.119,6.00,6,0.100,20274.000,0.200,2325.000,0.300,1667.000,0.500,1800.000,1.000,482.000,5.000,0
"03/12/08","02:05:13",26214.000,"cc",28306.147,6.00,6,0.100,19881.000,0.200,2421.000,0.300,1676.000,0.500,1714.000,1.000,522.000,5.000,0
"03/12/08","02:05:19",26188.000,"cc",28399.090,6.00,6,0.100,19761.000,0.200,2336.000,0.300,1737.000,0.500,1879.000,1.000,475.000,5.000,0
"03/12/08","02:05:25",26409.000,"cc",28296.832,6.00,6,0.100,20114.000,0.200,2419.000,0.300,1649.000,0.500,1753.000,1.000,474.000,5.000,0
"03/12/08","02:05:31",26085.000,"cc",28313.992,6.00,6,0.100,19772.000,0.200,2406.000,0.300,1682.000,0.500,1725.000,1.000,500.000,5.000,0
"03/12/08","02:05:37",26461.000,"cc",28322.469,6.00,6,0.100,19924.000,0.200,2440.000,0.300,1674.000,0.500,1907.000,1.000,516.000,5.000,0
"03/12/08","02:05:43",26302.000,"cc",28355.143,6.00,6,0.100,19825.000,0.200,2398.000,0.300,1766.000,0.500,1791.000,1.000,522.000,5.000,0
"03/12/08","02:05:49",26465.000,"cc",28293.324,6.00,6,0.100,20075.000,0.200,2332.000,0.300,1715.000,0.500,1822.000,1.000,521.000,5.000,0
"03/12/08","02:05:55",26175.000,"cc",28339.648,6.00,6,0.100,19719.000,0.200,2395.000,0.300,1697.000,0.500,1806.000,1.000,558.000,5.000,0
"03/12/08","02:06:01",26292.000,"cc",28260.455,6.00,6,0.100,19903.000,0.200,2369.000,0.300,1650.000,0.500,1833.000,1.000,537.000,5.000,0
"03/12/08","02:06:07",26168.000,"cc",28299.848,6.00,6,0.100,19804.000,0.200,2378.000,0.300,1678.000,0.500,1791.000,1.000,517.000,5.000,0
"03/12/08","02:06:13",26246.000,"cc",28300.180,6.00,6,0.100,19796.000,0.200,2434.000,0.300,1666.000,0.500,1828.000,1.000,522.000,5.000,0
"03/12/08","02:06:19",26216.000,"cc",28258.930,6.00,6,0.100,19876.000,0.200,2325.000,0.300,1729.000,0.500,1773.000,1.000,513.000,5.000,0
"03/12/08","02:06:25",26079.000,"cc",28331.684,6.00,6,0.100,19654.000,0.200,2435.000,0.300,1688.000,0.500,1812.000,1.000,490.000,5.000,0
"03/12/08","02:06:31",26098.000,"cc",28319.342,6.00,6,0.100,19713.000,0.200,2412.000,0.300,1618.000,0.500,1810.000,1.000,545.000,5.000,0
"03/12/08","02:06:37",26052.000,"cc",28294.043,6.00,6,0.100,19663.000,0.200,2396.000,0.300,1667.000,0.500,1780.000,1.000,546.000,5.000,0
"03/12/08","02:06:43",26142.000,"cc",28390.320,6.00,6,0.100,19926.000,0.200,2405.000,0.300,1591.000,0.500,1711.000,1.000,509.000,5.000,0
"03/12/08","02:06:49",26158.000,"cc",28347.068,6.00,6,0.100,19949.000,0.200,2331.000,0.300,1571.000,0.500,1789.000,1.000,518.000,5.000,0
"03/12/08","02:06:55",26229.000,"cc",28243.711,6.00,6,0.100,19881.000,0.200,2398.000,0.300,1605.000,0.500,1794.000,1.000,551.000,5.000,0
"03/12/08","02:07:01",26309.000,"cc",28341.293,6.00,6,0.100,19981.000,0.200,2393.000,0.300,1700.000,0.500,1717.000,1.000,518.000,5.000,0
"03/12/08","02:07:07",26251.000,"cc",28274.850,6.00,6,0.100,19884.000,0.200,2399.000,0.300,1662.000,0.500,1780.000,1.000,526.000,5.000,0
"03/12/08","02:07:13",26194.000,"cc",28349.633,6.00,6,0.100,19885.000,0.200,2386.000,0.300,1669.000,0.500,1796.000,1.000,458.000,5.000,0
"03/12/08","02:07:19",25911.000,"cc",28316.844,6.00,6,0.100,19665.000,0.200,2304.000,0.300,1639.000,0.500,1790.000,1.000,513.000,5.000,0
"03/12/08","02:07:25",26325.000,"cc",28332.816,6.00,6,0.100,19913.000,0.200,2372.000,0.300,1661.000,0.500,1874.000,1.000,505.000,5.000,0
"03/12/08","02:07:31",25883.000,"cc",28306.836,6.00,6,0.100,19431.000,0.200,2387.000,0.300,1744.000,0.500,1806.000,1.000,515.000,5.000,0
"03/12/08","02:07:37",26254.000,"cc",28383.656,6.00,6,0.100,19936.000,0.200,2330.000,0.300,1689.000,0.500,1765.000,1.000,534.000,5.000,0
"03/12/08","02:07:43",25876.000,"cc",28332.236,6.00,6,0.100,19708.000,0.200,2243.000,0.300,1638.000,0.500,1808.000,1.000,479.000,5.000,0
"03/12/08","02:07:49",25931.000,"cc",28291.020,6.00,6,0.100,19660.000,0.200,2360.000,0.300,1673.000,0.500,1778.000,1.000,460.000,5.000,0
"03/12/08","02:07:55",26166.000,"cc",28270.660,6.00,6,0.100,19880.000,0.200,2318.000,0.300,1647.000,0.500,1827.000,1.000,494.000,5.000,0
"03/12/08","02:08:01",25980.000,"cc",28322.135,6.00,6,0.100,19661.000,0.200,2357.000,0.300,1647.000,0.500,1849.000,1.000,466.000,5.000,0
"03/12/08","02:08:07",25925.000,"cc",28340.670,6.00,6,0.100,19704.000,0.200,2256.000,0.300,1733.000,0.500,1751.000,1.000,481.000,5.000,0
"03/12/08","02:08:13",25892.000,"cc",28309.701,6.00,6,0.100,19669.000,0.200,2401.000,0.300,1574.000,0.500,1744.000,1.000,504.000,5.000,0
"03/12/08","02:08:19",25600.000,"cc",28255.504,6.00,6,0.100,19463.000,0.200,2308.000,0.300,1617.000,0.500,1778.000,1.000,434.000,5.000,0
"03/12/08","02:08:25",25833.000,"cc",28378.969,6.00,6,0.100,19713.000,0.200,2258.000,0.300,1561.000,0.500,1805.000,1.000,496.000,5.000,0
"03/12/08","02:08:31",25656.000,"cc",28306.147,6.00,6,0.100,19517.000,0.200,2227.000,0.300,1642.000,0.500,1765.000,1.000,505.000,5.000,0
"03/12/08","02:08:37",26029.000,"cc",28261.551,6.00,6,0.100,19814.000,0.200,2341.000,0.300,1615.000,0.500,1780.000,1.000,479.000,5.000,0
"03/12/08","02:08:43",25597.000,"cc",28304.961,6.00,6,0.100,19384.000,0.200,2327.000,0.300,1624.000,0.500,1782.000,1.000,480.000,5.000,0
"03/12/08","02:08:49",25810.000,"cc",28445.242,6.00,6,0.100,19542.000,0.200,2338.000,0.300,1672.000,0.500,1716.000,1.000,542.000,5.000,0
"03/12/08","02:08:55",25900.000,"cc",28329.897,6.00,6,0.100,19594.000,0.200,2312.000,0.300,1669.000,0.500,1838.000,1.000,487.000,5.000,0
"03/12/08","02:09:01",25854.000,"cc",28231.703,6.00,6,0.100,19629.000,0.200,2349.000,0.300,1687.000,0.500,1714.000,1.000,475.000,5.000,0
"03/12/08","02:09:07",25668.000,"cc",28341.904,6.00,6,0.100,19477.000,0.200,2355.000,0.300,1615.000,0.500,1712.000,1.000,509.000,5.000,0
"03/12/08","02:09:13",25947.000,"cc",28386.793,6.00,6,0.100,19594.000,0.200,2307.000,0.300,1625.000,0.500,1916.000,1.000,505.000,5.000,0
"03/12/08","02:09:19",25851.000,"cc",28301.092,6.00,6,0.100,19696.000,0.200,2237.000,0.300,1653.000,0.500,1744.000,1.000,521.000,5.000,0
"03/12/08","02:09:25",25831.000,"cc",28252.279,6.00,6,0.100,19562.000,0.200,2341.000,0.300,1658.000,0.500,1783.000,1.000,487.000,5.000,0
"03/12/08","02:09:31",25523.000,"cc",28285.889,6.00,6,0.100,19350.000,0.200,2263.000,0.300,1654.000,0.500,1770.000,1.000,486.000,5.000,0
"03/12/08","02:09:37",25621.000,"cc",28271.707,6.00,6,0.100,19469.000,0.200,2297.000,0.300,1550.000,0.500,1825.000,1.000,480.000,5.000,0
"03/12/08","02:09:43",25620.000,"cc",28336.231,6.00,6,0.100,19487.000,0.200,2292.000,0.300,1586.000,0.500,1756.000,1.000,499.000,5.000,0
"03/12/08","02:09:49",25454.000,"cc",28303.559,6.00,6,0.100,19365.000,0.200,2207.000,0.300,1558.000,0.500,1793.000,1.000,531.000,5.000,0
"03/12/08","02:09:55",25840.000,"cc",28414.881,6.00,6,0.100,19715.000,0.200,2282.000,0.300,1653.000,0.500,1717.000,1.000,473.000,5.000,0
"03/12/08","02:10:01",25819.000,"cc",28334.150,6.00,6,0.100,19727.000,0.200,2216.000,0.300,1605.000,0.500,1782.000,1.000,489.000,5.000,0
"03/12/08","02:10:07",25367.000,"cc",28309.315,6.00,6,0.100,19371.000,0.200,2188.000,0.300,1600.000,0.500,1755.000,1.000,453.000,5.000,0
"03/12/08","02:10:13",25771.000,"cc",28285.938,6.00,6,0.100,19654.000,0.200,2273.000,0.300,1595.000,0.500,1711.000,1.000,538.000,5.000,0
"03/12/08","02:10:19",25789.000,"cc",28304.996,6.00,6,0.100,19613.000,0.200,2298.000,0.300,1634.000,0.500,1722.000,1.000,522.000,5.000,0
"03/12/08","02:10:25",25534.000,"cc",28301.277,6.00,6,0.100,19495.000,0.200,2334.000,0.300,1532.000,0.500,1740.000,1.000,433.000,5.000,0
"03/12/08","02:10:31",25582.000,"cc",28343.731,6.00,6,0.100,19505.000,0.200,2218.000,0.300,1545.000,0.500,1783.000,1.000,531.000,5.000,0
"03/12/08","02:10:37",25810.000,"cc",28312.324,6.00,6,0.100,19623.000,0.200,2260.000,0.300,1674.000,0.500,1728.000,1.000,525.000,5.000,0
"03/12/08","02:10:43",25509.000,"cc",28293.236,6.00,6,0.100,19479.000,0.200,2184.000,0.300,1630.000,0.500,1713.000,1.000,503.000,5.000,0
"03/12/08","02:10:49",25498.000,"cc",28279.242,6.00,6,0.100,19388.000,0.200,2217.000,0.300,1565.000,0.500,1798.000,1.000,530.000,5.000,0
"03/12/08","02:10:55",25744.000,"cc",28316.121,6.00,6,0.100,19564.000,0.200,2199.000,0.300,1632.000,0.500,1838.000,1.000,511.000,5.000,0
"03/12/08","02:11:01",25936.000,"cc",28334.219,6.00,6,0.100,19697.000,0.200,2286.000,0.300,1654.000,0.500,1815.000,1.000,484.000,5.000,0
"03/12/08","02:11:07",25466.000,"cc",28347.539,6.00,6,0.100,19521.000,0.200,2219.000,0.300,1595.000,0.500,1671.000,1.000,460.000,5.000,0
"03/12/08","02:11:13",25435.000,"cc",28350.029,6.00,6,0.100,19360.000,0.200,2225.000,0.300,1580.000,0.500,1794.000,1.000,476.000,5.000,0
"03/12/08","02:11:19",25588.000,"cc",28300.986,6.00,6,0.100,19575.000,0.200,2159.000,0.300,1591.000,0.500,1742.000,1.000,521.000,5.000,0
"03/12/08","02:11:25",25566.000,"cc",28264.988,6.00,6,0.100,19463.000,0.200,2235.000,0.300,1518.000,0.500,1810.000,1.000,540.000,5.000,0
"03/12/08","02:11:31",25482.000,"cc",28364.883,6.00,6,0.100,19428.000,0.200,2235.000,0.300,1496.000,0.500,1806.000,1.000,517.000,5.000,0
"03/12/08","02:11:37",25401.000,"cc",28245.908,6.00,6,0.100,19245.000,0.200,2305.000,0.300,1592.000,0.500,1773.000,1.000,486.000,5.000,0
"03/12/08","02:11:43",25969.000,"cc",28312.061,6.00,6,0.100,19790.000,0.200,2211.000,0.300,1611.000,0.500,1828.000,1.000,529.000,5.000,0
"03/12/08","02:11:49",25169.000,"cc",28262.801,6.00,6,0.100,19168.000,0.200,2209.000,0.300,1522.000,0.500,1755.000,1.000,515.000,5.000,0
"03/12/08","02:11:55",25471.000,"cc",28336.119,6.00,6,0.100,19464.000,0.200,2249.000,0.300,1549.000,0.500,1695.000,1.000,514.000,5.000,0
"03/12/08","02:12:01",25102.000,"cc",28304.229,6.00,6,0.100,19240.000,0.200,2098.000,0.300,1539.000,0.500,1728.000,1.000,497.000,5.000,0
"03/12/08","02:12:07",25678.000,"cc",28347.520,6.00,6,0.100,19538.000,0.200,2229.000,0.300,1628.000,0.500,1760.000,1.000,523.000,5.000,0
"03/12/08","02:12:13",25482.000,"cc",28324.848,6.00,6,0.100,19436.000,0.200,2229.000,0.300,1625.000,0.500,1666.000,1.000,526.000,5.000,0
"03/12/08","02:12:19",25253.000,"cc",28401.650,6.00,6,0.100,19232.000,0.200,2131.000,0.300,1548.000,0.500,1766.000,1.000,576.000,5.000,0
"03/12/08","02:12:25",25246.000,"cc",28223.875,6.00,6,0.100,19186.000,0.200,2259.000,0.300,1536.000,0.500,1734.000,1.000,531.000,5.000,0
"03/12/08","02:12:31",25289.000,"cc",28284.320,6.00,6,0.100,19342.000,0.200,2228.000,0.300,1479.000,0.500,1734.000,1.000,506.000,5.000,0
"03/12/08","02:12:37",24973.000,"cc",28300.561,6.00,6,0.100,19126.000,0.200,2145.000,0.300,1505.000,0.500,1652.000,1.000,545.000,5.000,0
"03/12/08","02:12:43",25452.000,"cc",28326.006,6.00,6,0.100,19384.000,0.200,2234.000,0.300,1536.000,0.500,1808.000,1.000,490.000,5.000,0
"03/12/08","02:12:49",25588.000,"cc",28319.461,6.00,6,0.100,19394.000,0.200,2209.000,0.300,1633.000,0.500,1818.000,1.000,534.000,5.000,0
"03/12/08","02:12:55",25281.000,"cc",28302.666,6.00,6,0.100,19228.000,0.200,2132.000,0.300,1558.000,0.500,1818.000,1.000,545.000,5.000,0
"03/12/08","02:13:01",25599.000,"cc",28376.229,6.00,6,0.100,19501.000,0.200,2188.000,0.300,1567.000,0.500,1798.000,1.000,545.000,5.000,0
"03/12/08","02:13:07",25371.000,"cc",28291.127,6.00,6,0.100,19256.000,0.200,2260.000,0.300,1548.000,0.500,1773.000,1.000,534.000,5.000,0
"03/12/08","02:13:13",25188.000,"cc",28333.979,6.00,6,0.100,19185.000,0.200,2170.000,0.300,1517.000,0.500,1791.000,1.000,525.000,5.000,0
"03/12/08","02:13:19",24780.000,"cc",28230.033,6.00,6,0.100,19016.000,0.200,2139.000,0.300,1493.000,0.500,1617.000,1.000,515.000,5.000,0
"03/12/08","02:13:25",25247.000,"cc",28380.115,6.00,6,0.100,19236.000,0.200,2185.000,0.300,1513.000,0.500,1782.000,1.000,531.000,5.000,0
"03/12/08","02:13:31",24995.000,"cc",28310.234,6.00,6,0.100,19071.000,0.200,2100.000,0.300,1612.000,0.500,1691.000,1.000,521.000,5.000,0
"03/12/08","02:13:37",25245.000,"cc",28242.461,6.00,6,0.100,19358.000,0.200,2141.000,0.300,1474.000,0.500,1770.000,1.000,502.000,5.000,0
"03/12/08","02:13:43",25173.000,"cc",28373.639,6.00,6,0.100,19344.000,0.200,2119.000,0.300,1515.000,0.500,1700.000,1.000,495.000,5.000,0
"03/12/08","02:13:49",25102.000,"cc",28326.053,6.00,6,0.100,19215.000,0.200,2124.000,0.300,1516.000,0.500,1697.000,1.000,550.000,5.000,0
"03/12/08","02:13:55",24667.000,"cc",28309.574,6.00,6,0.100,18795.000,0.200,2115.000,0.300,1546.000,0.500,1678.000,1.000,533.000,5.000,0
"03/12/08","02:14:01",25524.000,"cc",28188.924,6.00,6,0.100,19621.000,0.200,2153.000,0.300,1524.000,0.500,1716.000,1.000,510.000,5.000,0
"03/12/08","02:14:07",25225.000,"cc",28340.047,6.00,6,0.100,19135.000,0.200,2188.000,0.300,1608.000,0.500,1773.000,1.000,521.000,5.000,0
"03/12/08","02:14:13",25665.000,"cc",28376.719,6.00,6,0.100,19535.000,0.200,2216.000,0.300,1576.000,0.500,1775.000,1.000,563.000,5.000,0
"03/12/08","02:14:19",25102.000,"cc",28324.383,6.00,6,0.100,18919.000,0.200,2241.000,0.300,1575.000,0.500,1777.000,1.000,590.000,5.000,0
"03/12/08","02:14:25",25480.000,"cc",28331.596,6.00,6,0.100,19367.000,0.200,2194.000,0.300,1583.000,0.500,1797.000,1.000,539.000,5.000,0
"03/12/08","02:14:31",25371.000,"cc",28236.941,6.00,6,0.100,19373.000,0.200,2116.000,0.300,1584.000,0.500,1755.000,1.000,543.000,5.000,0
"03/12/08","02:14:37",25398.000,"cc",28282.947,6.00,6,0.100,19392.000,0.200,2210.000,0.300,1537.000,0.500,1679.000,1.000,580.000,5.000,0
"03/12/08","02:14:43",25136.000,"cc",28293.881,6.00,6,0.100,19209.000,0.200,2184.000,0.300,1563.000,0.500,1661.000,1.000,519.000,5.000,0
"03/12/08","02:14:49",24962.000,"cc",28313.041,6.00,6,0.100,19363.000,0.200,2051.000,0.300,1463.000,0.500,1621.000,1.000,464.000,5.000,0
"03/12/08","02:14:55",24538.000,"cc",28276.762,6.00,6,0.100,18958.000,0.200,2017.000,0.300,1430.000,0.500,1662.000,1.000,471.000,5.000,0
"03/12/08","02:15:01",25065.000,"cc",28452.045,6.00,6,0.100,19291.000,0.200,2105.000,0.300,1470.000,0.500,1685.000,1.000,514.000,5.000,0
"03/12/08","02:15:07",25011.000,"cc",28365.975,6.00,6,0.100,19274.000,0.200,2128.000,0.300,1483.000,0.500,1632.000,1.000,494.000,5.000,0
"03/12/08","02:15:13",25150.000,"cc",28351.678,6.00,6,0.100,19337.000,0.200,2052.000,0.300,1427.000,0.500,1753.000,1.000,581.000,5.000,0
"03/12/08","02:15:19",24859.000,"cc",28257.660,6.00,6,0.100,19179.000,0.200,2020.000,0.300,1371.000,0.500,1750.000,1.000,539.000,5.000,0
"03/12/08","02:15:25",25261.000,"cc",28248.594,6.00,6,0.100,19390.000,0.200,2101.000,0.300,1482.000,0.500,1772.000,1.000,516.000,5.000,0
"03/12/08","02:15:31",24699.000,"cc",28290.943,6.00,6,0.100,19079.000,0.200,2067.000,0.300,1408.000,0.500,1617.000,1.000,528.000,5.000,0
"03/12/08","02:15:37",24978.000,"cc",28345.553,6.00,6,0.100,19268.000,0.200,2050.000,0.300,1456.000,0.500,1680.000,1.000,524.000,5.000,0
"03/12/08","02:15:43",25019.000,"cc",28338.057,6.00,6,0.100,19195.000,0.200,2065.000,0.300,1513.000,0.500,1696.000,1.000,550.000,5.000,0
"03/12/08","02:15:49",24522.000,"cc",28300.867,6.00,6,0.100,18909.000,0.200,2036.000,0.300,1443.000,0.500,1652.000,1.000,482.000,5.000,0
"03/12/08","02:15:55",24845.000,"cc",28263.311,6.00,6,0.100,19123.000,0.200,2100.000,0.300,1415.000,0.500,1715.000,1.000,492.000,5.000,0
"03/12/08","02:16:01",25251.000,"cc",28260.406,6.00,6,0.100,19543.000,0.200,2059.000,0.300,1472.000,0.500,1676.000,1.000,501.000,5.000,0
"03/12/08","02:16:07",25037.000,"cc",28346.229,6.00,6,0.100,19325.000,0.200,2131.000,0.300,1499.000,0.500,1583.000,1.000,499.000,5.000,0
"03/12/08","02:16:13",25269.000,"cc",28368.471,6.00,6,0.100,19484.000,0.200,2133.000,0.300,1437.000,0.500,1715.000,1.000,500.000,5.000,0
"03/12/08","02:16:19",25061.000,"cc",28292.373,6.00,6,0.100,19303.000,0.200,2127.000,0.300,1452.000,0.500,1686.000,1.000,493.000,5.000,0